EW5523 Weather Reports


Display with metric or nautical units.
time (UTC)temp
F
wind
direction
speed
MPH
gust
MPH
rain 1hr
in
rain 24hr
in
rain mn
in
humidity
%
barometer
mb
20260504044535 56 308 0.0 4.0 0.00 0.00 0.00 47 1010.3
20260504043033 54 293 0.0 0.0 0.00 0.00 0.00 53 1010.4
20260504041526 53 283 0.0 2.0 0.00 0.00 0.00 52 1010.4
20260504040022 52 305 0.0 0.0 0.00 0.00 0.00 55 1010.4
20260504034520 50 191 0.0 0.0 0.00 0.00 0.00 57 1010.4
20260504033016 49 190 0.0 0.0 0.00 0.00 0.00 57 1010.5
20260504031514 48 164 0.0 0.0 0.00 0.00 0.00 58 1010.5
20260504030011 46 162 0.0 0.0 0.00 0.00 0.00 66 1010.6
20260504024512 46 162 0.0 0.0 0.00 0.00 0.00 70 1010.6
20260504023009 45 162 0.0 0.0 0.00 0.00 0.00 72 1010.6
20260504021508 42 163 0.0 0.0 0.00 0.00 0.00 76 1010.7
20260504020006 41 162 0.0 0.0 0.00 0.00 0.00 77 1010.8
20260504014506 39 162 0.0 0.0 0.00 0.00 0.00 77 1010.9
20260504013004 38 162 0.0 0.0 0.00 0.00 0.00 79 1010.9
20260504011503 37 162 0.0 0.0 0.00 0.00 0.00 78 1011.0
20260504010101 37 162 0.0 0.0 0.00 0.00 0.00 76 1011.0
20260504004557 38 162 0.0 0.0 0.00 0.00 0.00 73 1011.0
20260504003056 39 162 0.0 0.0 0.00 0.00 0.00 72 1011.0
20260504001555 39 162 0.0 0.0 0.00 0.00 0.00 71 1011.2
20260504000127 39 162 0.0 0.0 0.00 0.00 0.00 69 1011.3
20260503234548 40 162 0.0 0.0 0.00 0.00 0.00 67 1011.4
20260503233044 42 162 0.0 0.0 0.00 0.00 0.00 64 1011.4
20260503231542 42 162 0.0 0.0 0.00 0.00 0.00 62 1011.5
20260503230041 42 162 0.0 0.0 0.00 0.00 0.00 61 1011.6
20260503224537 43 162 0.0 0.0 0.00 0.00 0.00 59 1011.7
20260503223034 44 162 0.0 0.0 0.00 0.00 0.00 58 1011.8
20260503221530 45 162 0.0 0.0 0.00 0.00 0.00 56 1011.9
20260503220029 46 162 0.0 0.0 0.00 0.00 0.00 55 1011.9
20260503214525 46 162 0.0 0.0 0.00 0.00 0.00 54 1012.1
20260503213024 46 154 0.0 0.0 0.00 0.00 0.00 53 1012.1
20260503211523 47 152 0.0 0.0 0.00 0.00 0.00 52 1012.2
20260503210021 46 152 0.0 0.0 0.00 0.00 0.00 52 1012.2
20260503204519 47 152 0.0 0.0 0.00 0.00 0.00 51 1012.3
20260503203019 47 152 0.0 0.0 0.00 0.00 0.00 51 1012.3
20260503201518 47 152 0.0 0.0 0.00 0.00 0.00 51 1012.5
20260503200014 47 152 0.0 0.0 0.00 0.00 0.00 50 1012.5
20260503194515 48 152 0.0 0.0 0.00 0.00 0.00 49 1012.8
20260503193013 48 152 0.0 0.0 0.00 0.00 0.00 49 1012.8
20260503191511 49 152 0.0 0.0 0.00 0.00 0.00 48 1012.9
20260503190009 49 152 0.0 0.0 0.00 0.00 0.00 47 1012.9
20260503184516 50 152 0.0 0.0 0.00 0.00 0.00 46 1012.9
20260503183009 50 152 0.0 0.0 0.00 0.00 0.00 45 1013.0
20260503181507 50 152 0.0 0.0 0.00 0.00 0.00 46 1013.1
20260503180006 50 152 0.0 0.0 0.00 0.00 0.00 46 1013.2
20260503174504 50 152 0.0 0.0 0.00 0.00 0.00 47 1013.3
20260503173005 50 152 0.0 0.0 0.00 0.00 0.00 47 1013.3
20260503171507 51 152 0.0 0.0 0.00 0.00 0.00 46 1013.4
20260503081508 56 291 0.0 6.0 0.00 0.00 0.00 40 1018.3